| time (UTC) | temp F | wind direction | speed MPH | gust MPH | rain 1hr in | rain 24hr in | rain mn in | humidity % | barometer mb |
| 20260503024557 | 59 | 0 | 0.0 | 0.0 | 0.00 | 0.00 | 0.00 | 40 | 1015.1 |
| 20260503023050 | 60 | 0 | 0.0 | 0.0 | 0.00 | 0.00 | 0.00 | 39 | 1015.0 |
| 20260503021559 | 62 | 0 | 0.0 | 1.0 | 0.00 | 0.00 | 0.00 | 36 | 1014.8 |
| 20260503020056 | 63 | 0 | 0.0 | 0.0 | 0.00 | 0.00 | 0.00 | 35 | 1014.9 |
| 20260503014620 | 64 | 0 | 0.0 | 4.0 | 0.00 | 0.00 | 0.00 | 34 | 1014.8 |
| 20260503013051 | 66 | 0 | 0.0 | 1.0 | 0.00 | 0.00 | 0.00 | 32 | 1014.8 |
| 20260503011601 | 67 | 0 | 0.0 | 0.0 | 0.00 | 0.00 | 0.00 | 33 | 1014.7 |
| 20260503010055 | 66 | 0 | 0.0 | 6.0 | 0.00 | 0.00 | 0.00 | 32 | 1015.0 |
| 20260503004611 | 67 | 324 | 0.0 | 6.0 | 0.00 | 0.00 | 0.00 | 33 | 1015.2 |
| 20260503003049 | 65 | 0 | 1.0 | 4.0 | 0.00 | 0.00 | 0.00 | 35 | 1015.2 |
| 20260503001556 | 65 | 335 | 3.0 | 8.0 | 0.00 | 0.00 | 0.00 | 34 | 1015.5 |
| 20260503000114 | 64 | 0 | 0.0 | 9.0 | 0.00 | 0.00 | 0.00 | 34 | 1015.7 |
| 20260502234556 | 65 | 79 | 2.0 | 7.0 | 0.00 | 0.00 | 0.00 | 34 | 1015.7 |
| 20260502233053 | 64 | 0 | 1.0 | 10.0 | 0.00 | 0.00 | 0.00 | 35 | 1015.8 |
| 20260502231558 | 66 | 17 | 4.0 | 10.0 | 0.00 | 0.00 | 0.00 | 34 | 1016.0 |
| 20260502230055 | 66 | 350 | 1.0 | 5.0 | 0.00 | 0.00 | 0.00 | 34 | 1016.2 |
| 20260502224604 | 67 | 59 | 4.0 | 9.0 | 0.00 | 0.00 | 0.00 | 33 | 1016.3 |
| 20260502223055 | 66 | 221 | 4.0 | 9.0 | 0.00 | 0.00 | 0.00 | 34 | 1016.6 |
| 20260502221554 | 66 | 286 | 0.0 | 2.0 | 0.00 | 0.00 | 0.00 | 35 | 1016.7 |
| 20260502220052 | 65 | 0 | 1.0 | 8.0 | 0.00 | 0.00 | 0.00 | 37 | 1016.9 |
| 20260502214554 | 64 | 5 | 2.0 | 5.0 | 0.00 | 0.00 | 0.00 | 38 | 1017.2 |
| 20260502213105 | 64 | 360 | 0.0 | 5.0 | 0.00 | 0.00 | 0.00 | 38 | 1017.5 |
| 20260502211632 | 63 | 0 | 0.0 | 8.0 | 0.00 | 0.00 | 0.00 | 39 | 1017.7 |
| 20260502210100 | 63 | 21 | 3.0 | 8.0 | 0.00 | 0.00 | 0.00 | 39 | 1017.8 |
| 20260502203059 | 64 | 345 | 3.0 | 13.0 | 0.00 | 0.00 | 0.00 | 38 | 1018.0 |
| 20260502201558 | 63 | 102 | 3.0 | 12.0 | 0.00 | 0.00 | 0.00 | 39 | 1018.1 |
| 20260502200052 | 63 | 84 | 8.0 | 13.0 | 0.00 | 0.00 | 0.00 | 41 | 1018.3 |
| 20260502194601 | 61 | 59 | 11.0 | 17.0 | 0.00 | 0.00 | 0.00 | 41 | 1018.5 |
| 20260502193056 | 61 | 53 | 6.0 | 12.0 | 0.00 | 0.00 | 0.00 | 42 | 1018.5 |
| 20260502191550 | 61 | 32 | 4.0 | 13.0 | 0.00 | 0.00 | 0.00 | 42 | 1018.8 |
| 20260502190057 | 61 | 0 | 4.0 | 8.0 | 0.00 | 0.00 | 0.00 | 41 | 1018.8 |
| 20260502184555 | 61 | 0 | 0.0 | 4.0 | 0.00 | 0.00 | 0.00 | 40 | 1018.9 |
| 20260502183104 | 62 | 0 | 0.0 | 6.0 | 0.00 | 0.00 | 0.00 | 39 | 1018.9 |
| 20260502181551 | 62 | 0 | 0.0 | 4.0 | 0.00 | 0.00 | 0.00 | 41 | 1019.1 |
| 20260502163055 | 59 | 299 | 4.0 | 11.0 | 0.00 | 0.00 | 0.00 | 43 | 1019.4 |
| 20260502161549 | 60 | 336 | 11.0 | 16.0 | 0.00 | 0.00 | 0.00 | 41 | 1019.5 |
| 20260502151556 | 58 | 61 | 5.0 | 11.0 | 0.00 | 0.00 | 0.00 | 44 | 1019.3 |
| 20260502123058 | 49 | 30 | 11.0 | 15.0 | 0.00 | 0.00 | 0.00 | 54 | 1017.9 |
| 20260502121553 | 49 | 34 | 12.0 | 16.0 | 0.00 | 0.00 | 0.00 | 53 | 1017.9 |
| 20260502114610 | 50 | 42 | 14.0 | 21.0 | 0.00 | 0.00 | 0.00 | 51 | 1017.3 |
| 20260502113059 | 50 | 34 | 14.0 | 19.0 | 0.00 | 0.00 | 0.00 | 51 | 1017.2 |
| 20260502111559 | 50 | 42 | 14.0 | 18.0 | 0.00 | 0.00 | 0.00 | 50 | 1017.0 |
| 20260502110053 | 50 | 42 | 12.0 | 18.0 | 0.00 | 0.00 | 0.00 | 49 | 1016.7 |
| 20260502104554 | 47 | 13 | 4.0 | 10.0 | 0.00 | 0.00 | 0.00 | 54 | 1016.6 |
| 20260502103055 | 48 | 11 | 3.0 | 9.0 | 0.00 | 0.00 | 0.00 | 49 | 1016.5 |
| 20260502101623 | 47 | 360 | 4.0 | 6.0 | 0.00 | 0.00 | 0.00 | 50 | 1016.3 |
| 20260502090113 | 50 | 331 | 5.0 | 10.0 | 0.00 | 0.00 | 0.00 | 45 | 1015.4 |
| 20260502080106 | 52 | 313 | 3.0 | 5.0 | 0.00 | 0.00 | 0.00 | 39 | 1014.9 |
| 20260502070107 | 52 | 328 | 2.0 | 5.0 | 0.00 | 0.00 | 0.00 | 40 | 1014.8 |
| 20260502064556 | 55 | 0 | 1.0 | 6.0 | 0.00 | 0.00 | 0.00 | 36 | 1014.8 |
| 20260502063058 | 57 | 321 | 7.0 | 13.0 | 0.00 | 0.00 | 0.00 | 33 | 1014.8 |
| 20260502061602 | 56 | 322 | 7.0 | 12.0 | 0.00 | 0.00 | 0.00 | 34 | 1014.8 |
| 20260502060053 | 56 | 328 | 10.0 | 14.0 | 0.00 | 0.00 | 0.00 | 34 | 1014.8 |
| 20260502054555 | 56 | 319 | 12.0 | 17.0 | 0.00 | 0.00 | 0.00 | 32 | 1014.7 |
| 20260502053054 | 58 | 321 | 13.0 | 16.0 | 0.00 | 0.00 | 0.00 | 30 | 1014.6 |
| 20260502051620 | 58 | 315 | 11.0 | 17.0 | 0.00 | 0.00 | 0.00 | 30 | 1014.5 |
| 20260502050054 | 57 | 329 | 14.0 | 17.0 | 0.00 | 0.00 | 0.00 | 31 | 1014.3 |
| 20260502044554 | 57 | 322 | 9.0 | 13.0 | 0.00 | 0.00 | 0.00 | 31 | 1014.4 |
| 20260502043054 | 57 | 302 | 4.0 | 7.0 | 0.00 | 0.00 | 0.00 | 31 | 1014.4 |
| 20260502041551 | 59 | 296 | 8.0 | 14.0 | 0.00 | 0.00 | 0.00 | 27 | 1014.5 |
| 20260502040057 | 58 | 294 | 8.0 | 13.0 | 0.00 | 0.00 | 0.00 | 27 | 1014.5 |
| 20260502034553 | 58 | 293 | 5.0 | 12.0 | 0.00 | 0.00 | 0.00 | 26 | 1014.5 |
| 20260502033058 | 59 | 296 | 6.0 | 10.0 | 0.00 | 0.00 | 0.00 | 25 | 1014.3 |
| 20260502031555 | 59 | 292 | 3.0 | 7.0 | 0.00 | 0.00 | 0.00 | 24 | 1014.1 |
| 20260502030100 | 60 | 293 | 1.0 | 5.0 | 0.00 | 0.00 | 0.00 | 23 | 1014.0 |